Location: Bonnesvalyn
(49.1218°N, 3.3177°E)
Time: 13:03:25
(UTC+00:00)

Daily predictions for brighter satellites

Satellite Brightness Start Highest point End
(mag) Time Altitude Azimuth Time Altitude Azimuth Time Altitude Azimuth
COSMO-SKYMED 1 3.3 17:21:39 10° NNE 17:25:38 34° E 17:29:35 10° SSE
SL-4 R/B 1.6 17:24:18 10° WNW 17:27:47 87° SSW 17:31:26 10° ESE
Cosmos 1726 Rocket 3.5 17:23:38 10° N 17:27:58 76° E 17:32:17 10° SSE
Cosmos 1408 3.9 17:26:17 10° SSW 17:29:32 40° WNW 17:32:51 10° N
USA 281 3.6 17:23:53 10° NNE 17:30:26 70° WNW 17:36:57 10° SW
Cosmos 1825 2.0 17:28:08 10° S 17:31:48 76° E 17:35:30 10° NNE
USA 215 3.3 17:26:42 10° ESE 17:33:17 79° NNE 17:39:52 10° NW
Cosmos 540 Rocket 4.2 17:33:51 10° NNW 17:38:55 60° WSW 17:43:56 10° S
Cosmos 2322 4.3 17:35:43 10° S 17:40:56 38° ESE 17:46:10 10° NE
Cosmos 1892 3.7 17:39:27 10° SSW 17:43:04 49° WNW 17:46:46 10° N
Radarsat Rocket 4.4 17:37:36 10° SSE 17:43:53 86° WSW 17:51:05 10° NNW
Cosmos 1626 Rocket 4.5 17:42:01 10° SE 17:45:38 26° E 17:49:17 10° NNE
Cosmos 1340 2.5 17:43:17 10° N 17:46:59 75° ENE 17:50:38 10° SSE
Cosmos 1844 Rocket 4.1 17:42:24 10° NW 17:47:38 43° WSW 17:52:51 10° S
Lacrosse 4 Rocket 3.4 17:51:52 10° N 17:53:54 13° NNE 17:55:31 11° NE
Cosmos 1461 4.2 17:50:18 10° WSW 17:54:24 39° NW 17:58:41 10° NNE
CZ-4 R/B 2.4 17:51:39 10° ESE 17:54:58 25° ENE 17:58:14 10° N
CZ-4 R/B 4.4 17:52:31 10° SSE 17:56:38 82° ENE 18:00:47 10° NNW
SL-08 R/B 3.9 17:53:50 10° N 17:58:45 65° WNW 18:03:38 10° SSW
PAYLOAD B 4.2 17:54:44 10° SSE 18:00:08 60° ENE 18:05:34 10° N
Cosmos 841 Rocket 4.0 17:55:50 10° NNW 18:01:03 65° WSW 18:06:14 10° S
Cosmos 1814 Rocket 4.0 17:56:01 10° NNW 18:01:23 66° ENE 18:06:42 10° SSE
Cosmos 1869 3.8 18:01:33 10° NNW 18:05:27 64° W 18:09:23 10° S
DMSP B5D2-2 4.5 18:03:36 10° N 18:08:51 69° WNW 18:14:04 10° SSW
Cosmos 2058 4.1 18:06:28 10° SE 18:09:40 22° E 18:12:09 13° NE
PSLV R/B 3.7 18:06:27 10° SSE 18:10:05 57° ENE 18:13:49 10° N
ATLAS 5 CENTAUR R/B 3.6 18:08:25 10° NNW 18:11:30 17° NNE 18:13:56 13° NE
Cosmos 1386 Rocket 4.4 18:06:19 10° N 18:12:23 81° E 18:18:28 10° SSE
Cosmos 2315 Rocket 4.4 18:07:28 10° SSE 18:13:17 39° E 18:19:08 10° NNE
Cosmos 1850 Rocket 4.1 18:08:19 10° SSW 18:13:30 81° WNW 18:18:43 10° NNE
SKYMED 2 3.7 18:09:35 10° NNE 18:13:57 82° WNW 18:18:18 10° SSW
Okean O Rocket 2.1 18:10:47 10° SE 18:14:51 37° ENE 18:18:56 10° N
YAOGAN 1 2.5 18:10:55 10° SSE 18:15:10 61° ENE 18:19:27 10° N
Cosmos 2219 Rocket 2.1 18:10:18 10° SSW 18:15:53 82° ESE 18:21:32 10° NNE
CZ-4B R/B 3.2 18:11:13 10° SSE 18:16:31 59° ENE 18:21:56 10° N
BlueWalker 3 1.9 18:13:06 10° WNW 18:17:00 87° SSW 18:19:40 19° ESE
Cosmos 1356 3.0 18:16:54 10° N 18:19:56 57° ENE 18:22:56 10° SSE
Cosmos 2360 Rocket 3.1 18:14:34 10° SW 18:20:03 50° NW 18:25:35 10° NNE
Feng Yun 1-1 Rocket 4.5 18:15:25 10° SE 18:20:34 44° ENE 18:25:40 10° N
Cosmos 1606 2.5 18:17:18 10° N 18:21:09 79° E 18:24:58 10° SSE
Cosmos 2058 Rocket 3.9 18:17:28 10° NNW 18:21:47 54° W 18:26:07 10° S
CZ-4B DEB 4.5 18:16:48 10° S 18:22:15 73° WSW 18:27:46 10° NNW
Cosmos-2242 3.2 18:18:35 10° N 18:22:39 43° ENE 18:26:42 10° SSE
Cosmos 1745 Rocket 4.0 18:16:45 10° N 18:23:01 88° ENE 18:29:11 10° S
Lacrosse 5 2.8 18:18:44 10° W 18:23:34 40° NNW 18:27:06 17° NE
Okean 1-7 Rocket 3.6 18:20:08 10° S 18:24:31 62° E 18:28:58 10° NNE
Cosmos 1741 Rocket 4.3 18:19:57 10° SSW 18:25:15 70° WNW 18:30:36 10° NNE
Okean-O 4.0 18:28:31 20° NE 18:28:31 20° NE 18:31:12 10° NNE
SOICAL CYLINDER 4.3 18:28:01 10° SSW 18:30:49 63° ESE 18:31:19 50° ENE
BREEZE-M DEB (TANK) 3.8 18:16:55 10° SW 18:31:02 60° SSE 18:33:28 27° E
Cosmos 2237 Rocket 3.0 18:27:32 10° SSE 18:32:21 29° ESE 18:33:55 25° ENE
NOSS 8 (A) 4.2 18:28:55 10° SW 18:32:39 76° SE 18:33:43 38° NE
MINOTAUR 4 R/B 4.0 18:31:48 18° NNE 18:34:07 53° E 18:37:27 10° S
Cosmos 968 Rocket 3.4 18:30:09 10° S 18:35:19 65° ESE 18:40:32 10° NNE
Cosmos 2278 Rocket 2.2 18:30:11 10° NNW 18:35:51 65° ENE 18:41:02 12° SE
SJ-6B 3.4 18:36:32 34° ENE 18:36:43 34° ENE 18:40:23 10° N
Cosmos 2322 Rocket 3.9 18:32:03 10° WSW 18:36:57 30° NW 18:41:53 10° NNE
Cosmos 1709 Rocket 3.8 18:34:30 10° N 18:40:40 79° E 18:46:46 10° SSE
ATLAS CENTAUR R/B 4.0 18:41:58 10° NNW 18:43:14 11° N 18:44:29 10° N
Cosmos 1980 4.2 18:38:27 10° S 18:43:33 37° ESE 18:45:15 30° ENE
Resurs 1-3 4.4 18:44:19 32° NE 18:44:19 32° NE 18:47:49 10° N
Cosmos 2208 Rocket 3.9 18:39:38 10° NNW 18:44:51 74° ENE 18:49:56 11° SSE
CSL-04 Debris 4.4 18:42:07 20° SE 18:45:30 45° ENE 18:50:37 10° N
CSL-04 Rocket 4.0 18:43:56 27° ESE 18:46:18 42° ENE 18:51:23 10° N
Cosmos 2369 Rocket 3.8 18:43:03 10° N 18:46:34 17° NE 18:46:47 17° NE
Iridium 2 3.6 18:43:20 10° N 18:46:58 81° W 18:50:36 10° S
USA 81 4.0 18:41:44 10° S 18:47:00 86° E 18:52:19 10° N
Cosmos 1943 Rocket 2.8 18:42:19 10° NNW 18:47:31 35° NE 18:48:39 32° ENE
Cosmos 2333 Rocket 3.2 18:44:10 10° SW 18:49:36 45° NW 18:55:05 10° NNE
Cosmos 1570 Rocket 4.1 18:45:33 10° NNW 18:50:56 81° WSW 18:56:16 10° SSE
IGS 5A 3.3 18:52:11 28° SSE 18:54:14 65° ENE 18:58:20 10° N
Cosmos 1602 Rocket 3.4 18:50:06 10° S 18:54:24 84° E 18:58:45 10° N
Cosmos 1356 Rocket 3.1 18:50:44 10° S 18:54:40 71° E 18:56:49 26° NNE
Cosmos 44 Rocket 4.3 18:51:08 10° WSW 18:55:36 41° NW 18:59:07 16° NNE
SL-16 R/B 4.5 18:52:29 10° W 18:56:30 19° NW 19:00:33 10° N
Cosmos 883 Rocket 4.5 18:53:52 10° S 19:00:10 89° W 19:06:34 10° N
Spot 1 3.8 18:59:32 40° NNE 19:00:54 69° ESE 19:04:58 10° S
Cosmos 2074 Rocket 4.2 18:55:07 10° N 19:01:09 45° ENE 19:03:04 36° ESE
COSMOS 2428 2.8 18:58:13 10° SW 19:03:52 74° WNW 19:09:08 12° NNE
Cosmos 2184 Rocket 4.2 18:58:52 10° N 19:04:53 46° ENE 19:06:16 40° ESE
SL-4 R/B 3.8 19:03:52 10° W 19:06:45 23° SW 19:08:15 18° S
Gblst 52 Del rocket 4.1 19:02:54 10° WNW 19:08:27 74° N 19:09:53 50° E
Cosmos 1758 Rocket 3.5 19:05:07 10° SSW 19:09:28 80° W 19:13:53 10° N
Cosmos 1812 Rocket 4.1 19:05:07 10° NNW 19:09:31 61° W 19:13:53 10° S
NOSS 0 Rocket 3.8 19:03:19 10° SSW 19:09:32 73° ESE 19:13:26 24° NE
Landsat 7 3.6 19:15:20 67° E 19:15:35 69° ENE 19:20:18 10° N
USA 215 4.3 19:10:30 10° SSE 19:16:37 41° SW 19:22:46 10° WNW
Cosmos 2154 Rocket 4.3 19:11:32 10° N 19:17:22 44° ENE 19:17:22 44° ENE
Meteor 2-2 Rocket 4.3 19:20:43 10° NNW 19:26:24 76° W 19:32:09 10° S
CZ-4 R/B 2.9 19:25:58 10° SSW 19:29:43 35° W 19:33:26 10° NNW
Lacrosse 4 Rocket 2.8 19:29:15 10° NNW 19:31:44 31° N 19:31:44 31° N
Resurs 01 Rocket 3.8 19:40:04 17° N 19:40:04 17° N 19:41:10 10° N
Cosmos 2221 4.4 19:34:33 10° N 19:36:00 20° N 19:36:00 20° N
Cosmos 2285 Rocket 3.9 19:34:42 10° NNW 19:41:01 68° ENE 19:41:01 68° ENE
Cosmos 2058 4.3 19:42:20 10° SW 19:46:14 38° WNW 19:48:31 21° NNW
Okean O Rocket 3.6 19:47:30 10° SSW 19:51:15 27° W 19:55:03 10° NW
BlueWalker 3 4.3 19:52:16 10° W 19:54:29 20° WSW 19:54:29 20° WSW
ATLAS 5 CENTAUR R/B 3.2 19:52:20 10° NNW 19:55:18 32° N 19:55:18 32° N
Cosmos 2219 Rocket 4.2 19:56:06 10° W 20:00:32 23° NW 20:04:53 10° N
Okean-O 4.3 20:06:03 29° NW 20:06:03 29° NW 20:08:23 10° NNW
Lacrosse 5 3.3 20:02:48 10° WNW 20:06:18 31° NNW 20:06:18 31° NNW
Cosmos 2237 Rocket 2.8 20:10:33 10° SW 20:15:51 54° WNW 20:15:51 54° WNW
Cosmos 2278 Rocket 4.2 20:15:03 10° NW 20:19:26 23° WSW 20:22:59 13° SSW
Cosmos 909 Rocket 4.3 20:12:45 10° NW 20:19:28 69° W 20:19:28 69° W
Cosmos 1943 Rocket 3.3 20:26:00 10° NW 20:30:12 41° WNW 20:30:12 41° WNW
Cosmos 2369 Rocket 3.9 20:26:12 10° NNW 20:28:35 26° NNW 20:28:35 26° NNW
BREEZE-M DEB (TANK) 4.4 20:25:46 10° WSW 20:39:13 62° SSW 20:39:13 62° SSW
